COSMOS 1275 DEB, 12741

Orbit data source: Space-Track

COSMOS 1275 DEB, 12741 is space debris in LEO originally from a launch on Thu, 04 Jun 1981 UTC launched from the Plesetsk Missile And Space Complex (PKMTR). Debris objects in space refer to the collection of defunct objects orbiting the Earth. Examples of debris include non-operational satellites, rocket bodies, and fragments generated from explosions, collisions, or faulty payload assembly.

Loading next visibility...
Identifier
12741, 1981-053CJ
Orbit
LEO
Country
Flag of CISCIS
Related business
Manufacturer
Unknown
Mission
Spacecraft
Bus & Motor
Unknown
Mass
Unknown
Launch date (UTC)
1981-06-04 (45 years ago)
Launch vehicle
Unknown
Launch site
Plesetsk Missile And Space Complex (PKMTR)
Object type
Payload
Rocket body
Debris
Shape & HBR
Unknown shape, 0.1 m
Radar Cross Section
Small (<0.1 m²)

Expand to show TLE details & history
Last TLE update: 15 hours ago

TLE from 15 hours ago
0 COSMOS 1275 DEB
1 12741U 81053CJ  26067.86889062  .00001442  00000-0  11310-2 0  9999
2 12741  82.9485 207.1303 0062971 356.9182 129.9576 13.90411401246913
Epoch: 2026-03-08T20:51Z
TLE epoch observation values (Epoch: 2026-03-08T20:51:12.149Z)
Latitude
52.10881°
Longitude
-101.3381°
Altitude
965.353 km
Speed
7.359 km/s
True Right ascension
01h 12m 07s
True Declination
51° 56' 48"
Sunlit
Object was in daylight at epoch
Visualization orbit readout
Latitude
Unknown
Longitude
Unknown
Altitude
Unknown
Speed
Unknown
Apparent Right ascension
Unknown
Apparent Declination
Unknown
Sunlit
N/A
Visualization observer readout
Local Sidereal Time
16:26:26
Azimuth
Unknown
Elevation
Unknown
Doppler factor
Unknown
Orbital elements
Apogee altitude
970.301 km
Perigee altitude
878.332 km
Semi-major axis
7,302.454 km
Eccentricity
0.0063
Inclination
82.9485°
RAAN
207.1303°
Arg. of periapsis
356.9182°
True anomaly
130.50793°
Mean anomaly
129.9576°
Eccentric anomaly
130.23304°
Mean motion
3.47808 °/min
Orbital period
103.51 mins
BSTAR
0.001131
Loading maneuver chart data...
Computing Atmospheric mass density...
Loading historical data...
Loading historical data...
Loading historical data...
Loading historical data...
Loading historical data...
Loading historical data...
Loading historical data...

Documentation

Showing up to 5 results
|